Waarnemingen

Advertentie
Mijn weer
Nancy/Ochey, Frankrijk (7181): temperatuur & dauwpunt: 14.08.2017 04:00:00 - 20.08.2017 04:00:00 (CEST)Nancy/Ochey, Frankrijk (7181): temperatuur 5cm: 14.08.2017 04:00:00 - 20.08.2017 04:00:00 (CEST)Nancy/Ochey, Frankrijk (7181): temperatuur -20cm & temperatuur -100cm: 14.08.2017 04:00:00 - 20.08.2017 04:00:00 (CEST)Nancy/Ochey, Frankrijk (7181): windsnelheid & windstoten: 14.08.2017 04:00:00 - 20.08.2017 04:00:00 (CEST)Nancy/Ochey, Frankrijk (7181): windrichting: 14.08.2017 04:00:00 - 20.08.2017 04:00:00 (CEST)Nancy/Ochey, Frankrijk (7181): luchtdruk: 14.08.2017 04:00:00 - 20.08.2017 04:00:00 (CEST)Nancy/Ochey, Frankrijk (7181): zicht: 14.08.2017 04:00:00 - 20.08.2017 04:00:00 (CEST)Nancy/Ochey, Frankrijk (7181): neerslag: 14.08.2017 04:00:00 - 20.08.2017 04:00:00 (CEST)
Datum & Tijd tt [°C] td [°C] tt 5cm [°C] tt -20cm [°C] tt -100cm [°C] ff [km/u] ff [kn] fx [km/u] fx [kn] dd ppp [hPa] vv [km] rr [mm]
20.08.2017 04:00:00 - - - - - - - - - - - - -
20.08.2017 03:00:00 12,3 10,9 8,9 19,0 17,6 6 4 11 6 W 1023,9 51 0,0
20.08.2017 02:00:00 12,4 10,6 9,6 19,0 17,6 9 5 10 6 ZZO 1023,7 58 0,0
20.08.2017 01:00:00 12,7 10,9 7,9 19,0 17,6 6 3 8 4 ZZW 1023,5 59 0,0
20.08.2017 00:00:00 13,9 11,2 10,0 19,0 17,6 3 2 11 6 ONO 1023,2 58 0,0
19.08.2017 23:00:00 14,3 10,7 11,6 19,0 17,6 5 3 8 5 WZW 1023,3 60 0,0
19.08.2017 22:00:00 15,0 10,4 12,1 18,9 17,6 6 4 13 7 ZZW 1022,8 36 0,0
19.08.2017 21:00:00 15,8 10,5 13,6 18,9 17,5 10 5 17 9 WZW 1022,4 59 0,0
19.08.2017 20:00:00 16,5 9,9 14,7 18,9 17,5 9 5 29 15 W 1021,6 60 0,0
19.08.2017 19:00:00 18,7 9,7 20,5 18,8 17,5 19 10 32 17 W 1021,0 48 0,0
19.08.2017 18:00:00 18,9 9,7 21,0 18,8 17,5 20 11 36 19 WZW 1021,0 50 0,0
19.08.2017 17:00:00 19,4 8,7 19,4 18,8 17,6 19 10 37 20 W 1020,9 48 0,0
19.08.2017 16:00:00 18,9 8,8 19,8 18,7 17,5 14 8 32 17 WZW 1021,0 50 0,0
19.08.2017 15:00:00 19,1 9,6 21,4 18,7 17,5 20 11 36 19 W 1021,0 56 0,0
19.08.2017 14:00:00 18,5 9,0 18,6 18,8 17,5 19 10 45 24 W 1021,1 43 0,0
19.08.2017 13:00:00 18,0 8,5 20,0 18,8 17,5 21 11 37 20 WZW 1021,0 47 0,0
19.08.2017 12:00:00 17,2 9,6 19,5 18,8 17,5 21 12 33 18 WZW 1020,8 34 0,0
19.08.2017 11:00:00 16,8 11,7 19,2 18,9 17,5 19 10 28 15 WZW 1021,0 19 0,0
19.08.2017 10:00:00 14,5 10,9 15,8 19,0 17,5 9 5 15 8 WZW 1021,2 54 0,0
19.08.2017 09:00:00 14,8 12,5 14,1 19,0 17,5 8 5 16 8 WZW 1020,9 30 0,0
19.08.2017 08:00:00 14,3 13,5 12,2 19,0 17,5 9 5 13 7 WZW 1020,2 60 0,0
19.08.2017 07:00:00 12,7 12,5 8,0 19,1 17,5 3 1 8 5 W 1020,0 13 0,2
19.08.2017 06:00:00 12,9 12,6 11,2 19,2 17,6 7 4 12 6 ZZW 1019,3 16 0,0
19.08.2017 05:00:00 13,6 13,3 12,6 19,2 17,5 6 4 17 9 ZW 1019,1 36 0,0
19.08.2017 04:00:00 13,7 13,4 11,6 19,2 17,5 8 5 12 6 ZZW 1018,9 38 0,0
19.08.2017 03:00:00 13,7 13,2 12,5 19,2 17,5 6 4 10 6 ZZW 1018,6 37 0,0
19.08.2017 02:00:00 14,8 14,2 13,9 19,3 17,5 8 5 26 14 ZW 1018,6 20 4,3
19.08.2017 01:00:00 15,9 15,1 14,9 19,3 17,5 18 10 24 13 ZZW 1017,7 37 0,0
19.08.2017 00:00:00 15,6 15,0 14,4 19,3 17,5 17 9 26 14 ZZW 1017,5 58 0,0
18.08.2017 23:00:00 15,8 15,0 14,9 19,3 17,5 16 9 34 18 WZW 1017,2 59 0,0
18.08.2017 22:00:00 16,2 15,2 14,5 19,3 17,5 17 9 24 13 ZZW 1017,2 60 0,0
18.08.2017 21:00:00 16,1 15,1 14,9 19,4 17,5 16 9 24 13 ZZW 1016,7 60 0,0
18.08.2017 20:00:00 16,4 15,1 16,4 19,4 17,5 18 10 30 16 WZW 1016,3 60 0,0
18.08.2017 19:00:00 17,4 15,6 16,0 19,4 17,5 16 9 29 15 WZW 1016,0 59 0,0
18.08.2017 18:00:00 16,2 15,6 15,8 19,4 17,5 16 9 24 13 WZW 1015,5 43 1,6
18.08.2017 17:00:00 16,4 15,9 16,0 19,4 17,5 14 8 25 13 WZW 1016,0 13 2,0
18.08.2017 16:00:00 16,5 15,7 16,1 19,4 17,5 17 9 31 17 ZW 1015,5 11 1,6
18.08.2017 15:00:00 17,0 15,5 16,2 19,4 17,5 13 7 57 31 WZW 1015,4 47 0,6
18.08.2017 14:00:00 21,4 16,4 20,0 19,3 17,5 28 15 42 23 ZW 1014,1 59 0,0
18.08.2017 13:00:00 22,9 16,2 23,9 19,3 17,5 25 13 39 21 ZW 1013,5 55 0,0
18.08.2017 12:00:00 23,0 17,2 25,0 19,3 17,5 27 15 40 21 ZW 1014,0 58 0,0
18.08.2017 11:00:00 21,7 17,1 23,5 19,3 17,5 20 11 29 16 ZW 1015,0 60 0,0
18.08.2017 10:00:00 20,9 17,5 20,4 19,4 17,5 17 9 24 13 ZZW 1015,5 60 0,0
18.08.2017 09:00:00 19,2 16,8 18,4 19,4 17,5 12 6 20 11 ZZW 1015,5 57 0,0
18.08.2017 08:00:00 18,2 16,2 17,3 19,4 17,5 11 6 18 10 ZZW 1016,2 60 0,0
18.08.2017 07:00:00 18,1 15,9 17,2 19,5 17,5 11 6 17 9 Z 1016,5 60 0,0
18.08.2017 06:00:00 18,2 15,8 16,9 19,5 17,5 11 6 16 9 Z 1016,4 60 0,0
18.08.2017 05:00:00 18,1 15,5 16,8 19,5 17,5 15 8 18 10 Z 1016,3 60 0,0
18.08.2017 04:00:00 18,9 15,8 17,0 19,5 17,5 16 8 21 12 ZZW 1016,5 60 0,0
18.08.2017 03:00:00 18,6 15,8 16,3 19,5 17,5 14 8 17 9 Z 1016,8 60 0,0
18.08.2017 02:00:00 18,8 15,7 17,2 19,5 17,5 14 8 16 9 ZZW 1017,1 60 0,0
18.08.2017 01:00:00 19,2 15,9 15,2 19,5 17,5 13 7 17 9 Z 1017,4 60 0,0
18.08.2017 00:00:00 19,5 15,6 16,5 19,5 17,5 10 6 14 7 Z 1017,4 60 0,0
17.08.2017 23:00:00 19,9 15,5 16,4 19,4 17,5 6 4 21 11 ZW 1017,3 60 0,0
17.08.2017 22:00:00 20,2 15,2 15,4 19,4 17,5 6 3 15 8 WZW 1017,6 60 0,0
17.08.2017 21:00:00 21,0 15,3 16,9 19,3 17,5 5 3 12 7 W 1017,4 60 0,0
17.08.2017 20:00:00 23,0 15,6 21,2 19,3 17,5 7 4 17 9 W 1016,9 60 0,0
17.08.2017 19:00:00 25,6 14,7 25,3 19,2 17,5 12 6 23 13 W 1016,4 60 0,0
17.08.2017 18:00:00 25,1 15,7 25,6 19,1 17,5 15 8 34 19 WZW 1017,1 57 0,0
17.08.2017 17:00:00 25,5 15,5 25,6 19,1 17,5 17 9 32 17 WZW 1017,2 57 0,0
17.08.2017 16:00:00 25,8 16,1 26,3 19,1 17,5 21 11 36 19 ZW 1017,1 38 0,0
17.08.2017 15:00:00 25,3 14,4 26,3 19,1 17,5 22 12 39 21 ZW 1017,3 46 0,0
17.08.2017 14:00:00 25,6 15,3 24,9 19,0 17,5 22 12 42 23 ZW 1017,7 19 0,0
17.08.2017 13:00:00 23,5 15,0 25,8 19,1 17,5 29 15 39 21 ZW 1018,4 51 0,0
17.08.2017 12:00:00 23,3 15,1 23,6 19,1 17,5 22 12 34 18 ZW 1018,6 60 0,0
17.08.2017 11:00:00 21,3 14,7 22,3 19,1 17,5 22 12 30 16 ZW 1019,0 58 0,0
17.08.2017 10:00:00 20,9 17,1 21,6 19,1 17,5 16 9 25 14 ZW 1018,9 41 0,0
17.08.2017 09:00:00 19,1 17,1 19,2 19,2 17,5 14 8 20 11 ZZW 1018,8 30 0,0
17.08.2017 08:00:00 19,1 16,9 16,3 19,2 17,5 13 7 17 9 Z 1018,4 44 0,0
17.08.2017 07:00:00 17,3 16,2 14,2 19,2 17,5 8 4 13 7 ZZO 1018,7 21 0,2
17.08.2017 06:00:00 16,7 15,9 14,6 19,2 17,5 9 5 13 7 Z 1018,6 19 0,0
17.08.2017 05:00:00 16,3 15,3 12,3 19,2 17,5 9 5 10 6 ZZW 1018,8 20 0,0
17.08.2017 04:00:00 16,8 15,1 12,8 19,2 17,5 3 1 9 5 Z 1018,9 35 0,0
17.08.2017 03:00:00 17,5 15,8 12,0 19,2 17,5 2 1 8 4 ZO 1019,0 34 0,0
17.08.2017 02:00:00 17,4 15,9 12,6 19,2 17,5 4 2 5 3 Z 1019,2 34 0,0
17.08.2017 01:00:00 17,7 15,9 12,7 19,2 17,5 2 1 3 2 ZZW 1019,6 36 0,0
17.08.2017 00:00:00 18,0 16,0 13,3 19,2 17,5 0 0 4 2 N 1019,7 41 0,0
16.08.2017 23:00:00 17,9 16,9 12,7 19,1 17,5 3 2 6 3 NO 1020,3 37 0,0
16.08.2017 22:00:00 19,3 16,7 13,5 19,1 17,5 0 0 3 2 N 1020,2 48 0,0
16.08.2017 21:00:00 20,7 17,3 16,3 19,0 17,5 2 1 6 3 NO 1019,5 46 0,0
16.08.2017 20:00:00 22,4 17,5 22,1 18,9 17,5 4 2 8 5 NO 1019,1 57 0,0
16.08.2017 19:00:00 23,0 16,8 23,3 18,9 17,5 6 4 11 6 NW 1019,1 60 0,0
16.08.2017 18:00:00 23,4 16,7 25,0 18,8 17,5 6 3 14 8 NNW 1019,0 60 0,0
16.08.2017 17:00:00 23,6 17,1 26,5 18,7 17,4 5 3 13 7 NW 1019,2 59 0,0
16.08.2017 16:00:00 23,2 17,9 25,4 18,7 17,4 4 2 13 7 N 1019,7 57 0,0
16.08.2017 15:00:00 22,5 17,6 25,4 18,7 17,4 7 4 13 7 WNW 1020,1 52 0,0
16.08.2017 14:00:00 23,1 17,1 27,0 18,7 17,4 3 1 10 6 WZW 1020,1 49 0,0
16.08.2017 13:00:00 22,1 17,2 23,8 18,7 17,5 6 3 12 6 Z 1020,5 52 0,0
16.08.2017 12:00:00 20,7 16,9 23,8 18,7 17,4 6 3 14 8 OZO 1020,8 50 0,0
16.08.2017 11:00:00 20,6 17,4 23,1 18,7 17,5 10 6 17 9 O 1021,1 24 0,0
16.08.2017 10:00:00 19,5 17,6 19,8 18,7 17,4 9 5 14 7 OZO 1021,1 6 0,0
16.08.2017 09:00:00 17,2 16,4 16,2 18,8 17,5 7 4 10 5 O 1021,3 18 0,0
16.08.2017 08:00:00 15,9 15,6 15,5 18,8 17,5 8 4 10 5 ZO 1021,2 10 0,0
16.08.2017 07:00:00 15,8 15,6 14,5 18,8 17,5 4 2 7 4 O 1021,1 20 0,0
16.08.2017 06:00:00 15,8 15,6 15,6 18,8 17,5 6 3 9 5 OZO 1021,0 17 0,0
16.08.2017 05:00:00 15,9 15,7 14,8 18,8 17,4 0 0 7 4 N 1020,9 3,9 0,6
16.08.2017 04:00:00 15,9 15,6 14,9 18,9 17,5 4 2 7 4 Z 1020,7 17 2,8
16.08.2017 03:00:00 16,0 15,5 15,3 18,9 17,5 2 1 13 7 ZW 1021,1 1,7 3,3
16.08.2017 02:00:00 15,9 15,3 15,2 18,9 17,5 10 5 24 13 ZO 1020,8 6 1,2
16.08.2017 01:00:00 16,3 15,3 15,5 18,9 17,5 14 7 44 24 Z 1021,2 8 1,4
16.08.2017 00:00:00 17,2 15,5 15,9 18,9 17,5 0 0 18 10 N 1020,4 58 0,2
15.08.2017 23:00:00 17,3 15,8 16,1 18,9 17,5 9 5 19 10 WZW 1021,1 51 0,4
15.08.2017 22:00:00 18,0 15,4 17,0 18,9 17,5 13 7 20 11 WZW 1020,5 51 0,0
15.08.2017 21:00:00 18,7 15,4 17,4 18,9 17,5 13 7 30 16 W 1019,5 59 0,0
15.08.2017 20:00:00 21,0 15,5 20,0 18,8 17,4 14 7 29 15 W 1018,5 60 0,0
15.08.2017 19:00:00 22,0 16,3 21,5 18,8 17,5 19 10 26 14 ZZW 1018,1 60 0,0
15.08.2017 18:00:00 23,2 16,7 21,5 18,8 17,4 10 5 26 14 ZZW 1017,4 60 0,0
15.08.2017 17:00:00 21,8 16,7 21,1 18,8 17,4 17 9 31 17 Z 1017,7 52 0,0
15.08.2017 16:00:00 22,2 17,3 19,5 18,8 17,4 24 13 31 17 ZZW 1018,2 59 0,0
15.08.2017 15:00:00 21,0 17,4 19,3 18,8 17,5 21 11 31 17 ZW 1018,4 33 0,0
15.08.2017 14:00:00 22,0 16,7 19,9 18,8 17,4 19 10 29 15 Z 1017,1 52 0,0
15.08.2017 13:00:00 20,0 16,0 16,9 18,8 17,5 19 10 26 14 Z 1017,3 59 0,6
15.08.2017 12:00:00 17,9 16,1 16,3 18,8 17,4 21 12 54 29 ZZW 1017,8 19 5,7
15.08.2017 11:00:00 22,6 15,2 18,4 18,8 17,4 26 14 37 20 ZW 1016,6 20 0,2
15.08.2017 10:00:00 23,3 13,5 24,6 18,8 17,4 17 9 27 15 Z 1015,6 56 0,0
15.08.2017 09:00:00 21,5 14,4 20,1 18,9 17,4 15 8 27 14 ZZO 1015,7 53 0,0
15.08.2017 08:00:00 19,8 13,9 14,9 18,9 17,5 11 6 21 12 ZZO 1015,7 57 0,0
15.08.2017 07:00:00 17,2 13,9 13,8 18,9 17,5 9 5 13 7 ZO 1015,7 60 0,0
15.08.2017 06:00:00 17,5 14,2 13,1 18,9 17,5 4 2 17 9 ZO 1015,7 60 0,0
15.08.2017 05:00:00 16,8 14,1 11,6 18,9 17,5 13 7 18 10 ZO 1016,1 60 0,0
15.08.2017 04:00:00 17,0 13,7 12,4 18,9 17,5 7 4 10 5 ZZO 1016,3 60 0,0
15.08.2017 03:00:00 17,1 13,8 12,3 18,9 17,5 5 3 6 3 ZO 1016,2 60 0,0
15.08.2017 02:00:00 18,2 13,9 13,3 18,9 17,5 0 0 16 8 N 1016,1 60 0,0
15.08.2017 01:00:00 18,6 13,9 13,8 18,9 17,5 12 6 14 8 ZO 1016,3 60 0,0
15.08.2017 00:00:00 18,9 13,7 14,3 18,8 17,5 10 6 13 7 ZO 1016,7 60 0,0
14.08.2017 23:00:00 19,7 13,6 14,3 18,7 17,5 10 5 13 7 ZO 1016,6 60 0,0
14.08.2017 22:00:00 20,9 13,6 14,7 18,7 17,5 9 5 11 6 ZO 1016,5 60 0,0
14.08.2017 21:00:00 22,7 13,7 15,6 18,6 17,5 7 4 16 8 ZO 1015,8 60 0,0
14.08.2017 20:00:00 25,8 13,6 25,7 18,5 17,4 10 5 18 10 ZZO 1015,2 60 0,0
14.08.2017 19:00:00 27,2 13,2 26,5 18,4 17,5 7 4 19 11 Z 1015,2 60 0,0
14.08.2017 18:00:00 27,1 13,1 26,6 18,3 17,5 11 6 22 12 ZZW 1015,5 60 0,0
14.08.2017 17:00:00 27,3 11,7 31,5 18,2 17,5 10 5 22 12 ZZO 1015,6 60 0,0
14.08.2017 16:00:00 26,8 14,2 27,9 18,2 17,5 10 5 22 12 ZZO 1016,0 60 0,0
14.08.2017 15:00:00 25,8 15,5 29,1 18,1 17,5 8 4 21 12 O 1016,5 19 0,0
14.08.2017 14:00:00 24,6 16,1 28,0 18,1 17,5 8 5 16 9 O 1017,2 60 0,0
14.08.2017 13:00:00 23,8 15,6 26,4 18,1 17,5 4 2 13 7 ZZW 1018,0 19 0,0
14.08.2017 12:00:00 23,5 15,8 29,6 18,1 17,5 3 2 11 6 ZZW 1018,3 60 0,0
14.08.2017 11:00:00 21,4 16,6 25,3 18,1 17,5 3 2 10 6 NNW 1018,8 38 0,0
14.08.2017 10:00:00 18,7 15,4 19,9 18,2 17,5 3 2 8 4 W 1019,2 49 0,0
14.08.2017 09:00:00 16,5 14,9 17,3 18,2 17,5 3 1 8 4 OZO 1019,5 32 0,0
14.08.2017 08:00:00 15,2 13,7 8,6 18,2 17,5 3 1 8 5 NO 1019,6 30 0,0
14.08.2017 07:00:00 13,1 12,8 7,0 18,3 17,5 5 3 8 4 O 1019,7 20 0,0
14.08.2017 06:00:00 13,1 12,6 7,0 18,3 17,6 0 0 4 2 N 1019,8 18 0,0
14.08.2017 05:00:00 14,1 13,3 8,1 18,3 17,5 2 1 3 2 N 1019,7 55 0,0
14.08.2017 04:00:00 15,4 13,4 12,7 18,3 17,5 0 0 9 5 N 1019,9 60 0,0

tt = temperatuur
td = dauwpunt
tt 5cm = temperatuur 5cm
tt -20cm = temperatuur -20cm
tt -100cm = temperatuur -100cm
ff = windsnelheid
fx = windstoten
dd = windrichting
ppp = luchtdruk
vv = zicht
rr = neerslag

Weerstations in de omgeving